{"data":{"norad_id":60551,"intl_designator":"2024-149CM","name":"BRO-14","alt_names":[],"object_type":"PAYLOAD","status":"ACTIVE","operator":null,"country":"FR","launch_date":"2024-08-16","launch_site_code":"AFWTR","launch_vehicle":null,"mission":null,"orbit_class":"UNKNOWN","rcs_meters":null,"size_class":null,"mass_kg":null,"dimensions":null,"purposes":[],"wikipedia_slug":null,"has_3d_model":false,"image_url":null,"decayed_at":null,"tle_current":{"epoch":"2026-05-25T04:31:42.038400Z","epoch_age_seconds":52780,"freshness":"FRESH","line1":"1 60551U 24149CM  26145.18868100  .00000244  00000+0  26722-4 0  9999","line2":"2 60551  97.6877 221.3799 0006994 162.9959 197.1498 14.96125534 96559","mean_motion":14.96125534,"eccentricity":0.0006994,"inclination_deg":97.6877,"raan_deg":221.3799,"arg_perigee_deg":162.9959,"mean_anomaly_deg":197.1498,"bstar":2.6722e-5,"rev_number":9655,"period_min":96.248607972759,"perigee_km":574.015650753,"apogee_km":583.74712807611,"semimajor_km":6957.0183894146,"source":"CELESTRAK","updated_at":"2026-05-25T13:38:02.152252Z"}}}